Back to catalog

STARLINK-34395

AliveCommunicationsVLEO
NORAD 64668·PAYLOAD·🇺🇸 United States

Launched Jun 28, 2025 from Cape Canaveral Space Force Station

Loading…

Next Passes (next 24 hours)

TLE

FreshSource: CelesTrak SupGP

Epoch: Sep 14, 2026, 22:26 UTC

1 64668C 25139E   26257.93520833  .00012036  00000+0  35575-3 0  2571
2 64668  53.1598 323.9919 0001274  87.9649 328.4240 15.34373137    17

Track STARLINK-34395 in real time with AllMySat

Download on the App Store